PU2UHW-13 Weather Reports


time (UTC)temp
F
wind
direction
speed
knots
gust
knots
rain 1hr
in
rain 24hr
in
rain mn
in
humidity
%
barometer
mb
20260508035955 67 0.0 0.0 0.00 0.00 0.00 78 1010.8
20260508035655 68 0.0 0.0 0.00 0.00 0.00 76 1010.8
20260508035355 68 0.0 0.0 0.00 0.00 0.00 75 1010.7
20260508035055 67 0.0 0.0 0.00 0.00 0.00 77 1010.8
20260508034755 68 0.0 0.0 0.00 0.00 0.00 76 1010.7
20260508034455 67 0.0 0.0 0.00 0.00 0.00 79 1011.0
20260508034155 67 0.0 0.0 0.00 0.00 0.00 77 1010.8
20260508033855 67 0.0 0.0 0.00 0.00 0.00 77 1011.0
20260508033555 67 0.0 0.0 0.00 0.00 0.00 77 1011.1
20260508033255 67 0.0 0.0 0.00 0.00 0.00 77 1011.0
20260508032955 67 0.0 0.0 0.00 0.00 0.00 76 1010.8
20260508032655 67 0.0 0.0 0.00 0.00 0.00 77 1010.9
20260508032355 66 0.0 0.0 0.00 0.00 0.00 80 1011.1
20260508032055 66 0.0 0.0 0.00 0.00 0.00 79 1011.1
20260508031755 66 0.0 0.0 0.00 0.00 0.00 80 1011.2
20260508031455 66 0.0 0.0 0.00 0.00 0.00 79 1011.4
20260508031157 67 0.0 0.0 0.00 0.00 0.00 77 1011.2
20260508030855 66 0.0 0.0 0.00 0.00 0.00 78 1011.4
20260508030555 67 0.0 0.0 0.00 0.00 0.00 76 1011.2
20260508030255 67 0.0 0.0 0.00 0.00 0.00 77 1011.3
20260508025955 66 0.0 0.0 0.00 0.00 0.00 79 1011.6
20260508025655 66 0.0 0.0 0.00 0.00 0.00 78 1011.6
20260508025402 68 0.0 0.0 0.00 0.00 0.00 74 1011.4
20260508025055 66 0.0 0.0 0.00 0.00 0.00 77 1011.8
20260508024755 66 0.0 0.0 0.00 0.00 0.00 79 1012.0
20260508024455 66 0.0 0.0 0.00 0.00 0.00 79 1012.0
20260508024155 67 0.0 0.0 0.00 0.00 0.00 77 1011.7
20260508023855 66 0.0 0.0 0.00 0.00 0.00 78 1011.9
20260508023555 66 0.0 0.0 0.00 0.00 0.00 78 1012.0
20260508023255 67 0.0 0.0 0.00 0.00 0.00 76 1011.9
20260508022955 67 0.0 0.0 0.00 0.00 0.00 76 1011.8
20260508022655 66 0.0 0.0 0.00 0.00 0.00 76 1011.8
20260508022355 67 0.0 0.0 0.00 0.00 0.00 75 1011.9
20260508022055 67 0.0 0.0 0.00 0.00 0.00 76 1011.9
20260508021755 67 0.0 0.0 0.00 0.00 0.00 74 1011.8
20260508021455 67 0.0 0.0 0.00 0.00 0.00 74 1011.7
20260508021155 67 0.0 0.0 0.00 0.00 0.00 74 1011.8
20260508020855 67 0.0 0.0 0.00 0.00 0.00 75 1011.9
20260508020555 67 0.0 0.0 0.00 0.00 0.00 75 1012.0
20260508020255 67 0.0 0.0 0.00 0.00 0.00 75 1012.0
20260508015955 65 0.0 0.0 0.00 0.00 0.00 78 1012.3
20260508015655 67 0.0 0.0 0.00 0.00 0.00 74 1011.8
20260508015355 68 0.0 0.0 0.00 0.00 0.00 74 1011.5
20260508015058 68 0.0 0.0 0.00 0.00 0.00 74 1011.6
20260508014755 68 0.0 0.0 0.00 0.00 0.00 75 1011.9
20260508014455 68 0.0 0.0 0.00 0.00 0.00 75 1011.9
20260508014155 67 0.0 0.0 0.00 0.00 0.00 76 1012.0
20260508013855 67 0.0 0.0 0.00 0.00 0.00 76 1012.1
20260508013555 67 0.0 0.0 0.00 0.00 0.00 76 1012.2
20260508013255 68 0.0 0.0 0.00 0.00 0.00 75 1012.0
20260508012955 68 0.0 0.0 0.00 0.00 0.00 74 1011.8
20260508012655 67 0.0 0.0 0.00 0.00 0.00 75 1011.9
20260508012355 67 0.0 0.0 0.00 0.00 0.00 76 1011.8
20260508012055 68 0.0 0.0 0.00 0.00 0.00 74 1011.7
20260508011755 68 0.0 0.0 0.00 0.00 0.00 74 1011.7
20260508011455 68 0.0 0.0 0.00 0.00 0.00 74 1011.7
20260508011155 68 0.0 0.0 0.00 0.00 0.00 75 1011.7
20260508010855 68 0.0 0.0 0.00 0.00 0.00 75 1011.7
20260508010555 67 0.0 0.0 0.00 0.00 0.00 77 1011.9
20260508010255 68 0.0 0.0 0.00 0.00 0.00 75 1011.7
20260508005955 68 0.0 0.0 0.00 0.00 0.00 75 1011.6
20260508005655 68 0.0 0.0 0.00 0.00 0.00 74 1011.6
20260508005355 67 0.0 0.0 0.00 0.00 0.00 75 1011.6
20260508005055 68 0.0 0.0 0.00 0.00 0.00 75 1011.5
20260508004755 68 0.0 0.0 0.00 0.00 0.00 75 1011.4
20260508004455 68 0.0 0.0 0.00 0.00 0.00 74 1011.3
20260508004155 68 0.0 0.0 0.00 0.00 0.00 74 1011.3
20260508003855 68 0.0 0.0 0.00 0.00 0.00 75 1011.3
20260508003555 68 0.0 0.0 0.00 0.00 0.00 75 1011.2
20260508003255 68 0.0 0.0 0.00 0.00 0.00 76 1011.3
20260508002955 68 0.0 0.0 0.00 0.00 0.00 74 1011.0
20260508002655 68 0.0 0.0 0.00 0.00 0.00 75 1011.0
20260508002355 68 0.0 0.0 0.00 0.00 0.00 75 1011.1
20260508002055 68 0.0 0.0 0.00 0.00 0.00 76 1011.1
20260508001755 68 0.0 0.0 0.00 0.00 0.00 75 1011.0
20260508001455 68 0.0 0.0 0.00 0.00 0.00 76 1011.0
20260508001155 69 0.0 0.0 0.00 0.00 0.00 75 1011.0
20260508000855 68 0.0 0.0 0.00 0.00 0.00 75 1011.1
20260508000555 69 0.0 0.0 0.00 0.00 0.00 75 1011.0
20260508000257 69 0.0 0.0 0.00 0.00 0.00 74 1011.1
20260507235954 68 0.0 0.0 0.00 0.00 0.00 74 1011.2
20260507235655 68 0.0 0.0 0.00 0.00 0.00 74 1011.2
20260507235355 68 0.0 0.0 0.00 0.00 0.00 74 1011.0
20260507235056 68 0.0 0.0 0.00 0.00 0.00 74 1011.0
20260507234755 68 0.0 0.0 0.00 0.00 0.00 75 1011.1
20260507234455 68 0.0 0.0 0.00 0.00 0.00 74 1011.1
20260507234155 69 0.0 0.0 0.00 0.00 0.00 73 1010.9
20260507233855 69 0.0 0.0 0.00 0.00 0.00 74 1011.0
20260507233555 68 0.0 0.0 0.00 0.00 0.00 74 1011.2
20260507233255 68 0.0 0.0 0.00 0.00 0.00 75 1011.2
20260507232955 68 0.0 0.0 0.00 0.00 0.00 75 1011.2
20260507232655 69 0.0 0.0 0.00 0.00 0.00 74 1011.2
20260507232355 69 0.0 0.0 0.00 0.00 0.00 74 1011.2
20260507232055 69 0.0 0.0 0.00 0.00 0.00 73 1011.1
20260507231755 70 0.0 0.0 0.00 0.00 0.00 71 1010.9
20260507231455 70 0.0 0.0 0.00 0.00 0.00 71 1010.9
20260507231155 69 0.0 0.0 0.00 0.00 0.00 73 1011.1
20260507230855 69 0.0 0.0 0.00 0.00 0.00 73 1011.0
20260507230555 69 0.0 0.0 0.00 0.00 0.00 73 1011.0
20260507230255 69 0.0 0.0 0.00 0.00 0.00 73 1011.0
20260507225955 69 0.0 0.0 0.00 0.00 0.00 73 1010.9
20260507225655 69 0.0 0.0 0.00 0.00 0.00 72 1010.8
20260507225355 69 0.0 0.0 0.00 0.00 0.00 73 1010.9
20260507225055 69 0.0 0.0 0.00 0.00 0.00 73 1011.0
20260507224755 69 0.0 0.0 0.00 0.00 0.00 73 1010.9
20260507224455 70 0.0 0.0 0.00 0.00 0.00 71 1010.8
20260507224155 69 0.0 0.0 0.00 0.00 0.00 72 1010.9
20260507223855 70 0.0 0.0 0.00 0.00 0.00 71 1010.7
20260507223555 70 0.0 0.0 0.00 0.00 0.00 72 1010.8
20260507223255 70 0.0 0.0 0.00 0.00 0.00 71 1010.7
20260507222955 70 0.0 0.0 0.00 0.00 0.00 72 1010.8
20260507222655 70 0.0 0.0 0.00 0.00 0.00 71 1010.8
20260507222354 69 0.0 0.0 0.00 0.00 0.00 72 1010.9
20260507222055 71 0.0 0.0 0.00 0.00 0.00 69 1010.7
20260507221755 70 0.0 0.0 0.00 0.00 0.00 70 1010.8
20260507221455 70 0.0 0.0 0.00 0.00 0.00 70 1010.8
20260507221155 70 0.0 0.0 0.00 0.00 0.00 70 1010.7
20260507220855 70 0.0 0.0 0.00 0.00 0.00 70 1010.7
20260507220555 71 0.0 0.0 0.00 0.00 0.00 69 1010.6
20260507220255 71 0.0 0.0 0.00 0.00 0.00 70 1010.5
20260507215954 71 0.0 0.0 0.00 0.00 0.00 68 1010.4
20260507215654 71 0.0 0.0 0.00 0.00 0.00 68 1010.4
20260507215355 71 0.0 0.0 0.00 0.00 0.00 68 1010.5
20260507215055 71 0.0 0.0 0.00 0.00 0.00 68 1010.5
20260507214755 71 0.0 0.0 0.00 0.00 0.00 69 1010.5
20260507214455 71 0.0 0.0 0.00 0.00 0.00 69 1010.5
20260507214155 71 0.0 0.0 0.00 0.00 0.00 70 1010.4
20260507213855 71 0.0 0.0 0.00 0.00 0.00 70 1010.3
20260507213555 72 0.0 0.0 0.00 0.00 0.00 69 1010.1
20260507213255 72 0.0 0.0 0.00 0.00 0.00 67 1010.1
20260507212954 72 0.0 0.0 0.00 0.00 0.00 67 1010.0
20260507212656 72 0.0 0.0 0.00 0.00 0.00 68 1010.1
20260507212355 72 0.0 0.0 0.00 0.00 0.00 67 1010.0
20260507212055 71 0.0 0.0 0.00 0.00 0.00 67 1010.1
20260507211755 71 0.0 0.0 0.00 0.00 0.00 68 1010.1
20260507211455 71 0.0 0.0 0.00 0.00 0.00 68 1010.1
20260507211155 72 0.0 0.0 0.00 0.00 0.00 67 1010.0
20260507210855 72 0.0 0.0 0.00 0.00 0.00 67 1010.1
20260507210555 72 0.0 0.0 0.00 0.00 0.00 66 1010.0
20260507210255 73 0.0 0.0 0.00 0.00 0.00 65 1009.8
20260507205955 73 0.0 0.0 0.00 0.00 0.00 66 1010.1
20260507205655 74 0.0 0.0 0.00 0.00 0.00 62 1009.9
20260507205355 75 0.0 0.0 0.00 0.00 0.00 62 1009.7
20260507205055 74 0.0 0.0 0.00 0.00 0.00 63 1009.9
20260507204755 74 0.0 0.0 0.00 0.00 0.00 62 1009.8
20260507204455 74 0.0 0.0 0.00 0.00 0.00 62 1009.8
20260507204156 74 0.0 0.0 0.00 0.00 0.00 62 1009.7
20260507203854 74 0.0 0.0 0.00 0.00 0.00 61 1009.7
20260507203550 74 0.0 0.0 0.00 0.00 0.00 62 1009.6
20260507203254 73 0.0 0.0 0.00 0.00 0.00 63 1009.6
20260507202954 74 0.0 0.0 0.00 0.00 0.00 61 1009.6
20260507202654 74 0.0 0.0 0.00 0.00 0.00 62 1009.6
20260507202355 74 0.0 0.0 0.00 0.00 0.00 61 1009.5
20260507202055 74 0.0 0.0 0.00 0.00 0.00 61 1009.5
20260507201755 75 0.0 0.0 0.00 0.00 0.00 60 1009.3
20260507201455 74 0.0 0.0 0.00 0.00 0.00 60 1009.4
20260507201155 75 0.0 0.0 0.00 0.00 0.00 60 1009.3
20260507200855 75 0.0 0.0 0.00 0.00 0.00 60 1009.3
20260507200554 74 0.0 0.0 0.00 0.00 0.00 60 1009.4
20260507200254 75 0.0 0.0 0.00 0.00 0.00 60 1009.4
20260507195955 75 0.0 0.0 0.00 0.00 0.00 59 1009.1
20260507195655 76 0.0 0.0 0.00 0.00 0.00 58 1009.1
20260507195355 75 0.0 0.0 0.00 0.00 0.00 59 1009.2
20260507195055 75 0.0 0.0 0.00 0.00 0.00 58 1009.0
20260507194754 76 0.0 0.0 0.00 0.00 0.00 58 1008.9
20260507194454 75 0.0 0.0 0.00 0.00 0.00 58 1009.1
20260507194154 75 0.0 0.0 0.00 0.00 0.00 59 1009.2
20260507193854 76 0.0 0.0 0.00 0.00 0.00 58 1009.2
20260507193555 75 0.0 0.0 0.00 0.00 0.00 58 1009.3
20260507193255 76 0.0 0.0 0.00 0.00 0.00 58 1009.1
20260507192955 75 0.0 0.0 0.00 0.00 0.00 58 1009.2
20260507192655 75 0.0 0.0 0.00 0.00 0.00 59 1009.3
20260507192355 76 0.0 0.0 0.00 0.00 0.00 58 1009.2
20260507192054 76 0.0 0.0 0.00 0.00 0.00 58 1009.1
20260507191754 76 0.0 0.0 0.00 0.00 0.00 57 1009.0
20260507191454 75 0.0 0.0 0.00 0.00 0.00 59 1009.2
20260507191155 76 0.0 0.0 0.00 0.00 0.00 58 1009.1
20260507190855 76 0.0 0.0 0.00 0.00 0.00 58 1009.1
20260507190555 76 0.0 0.0 0.00 0.00 0.00 57 1009.1
20260507190255 77 0.0 0.0 0.00 0.00 0.00 56 1009.0
20260507185955 76 0.0 0.0 0.00 0.00 0.00 57 1009.1
20260507185655 76 0.0 0.0 0.00 0.00 0.00 57 1009.1
20260507185355 76 0.0 0.0 0.00 0.00 0.00 56 1009.1
20260507185054 76 0.0 0.0 0.00 0.00 0.00 57 1009.3
20260507184755 76 0.0 0.0 0.00 0.00 0.00 57 1009.2
20260507184455 76 0.0 0.0 0.00 0.00 0.00 58 1009.3
20260507184155 75 0.0 0.0 0.00 0.00 0.00 58 1009.4
20260507183855 76 0.0 0.0 0.00 0.00 0.00 58 1009.2
20260507183555 75 0.0 0.0 0.00 0.00 0.00 58 1009.3
20260507183255 75 0.0 0.0 0.00 0.00 0.00 59 1009.5
20260507182955 76 0.0 0.0 0.00 0.00 0.00 57 1009.4
20260507182655 75 0.0 0.0 0.00 0.00 0.00 58 1009.5
20260507182355 75 0.0 0.0 0.00 0.00 0.00 58 1009.6
20260507182054 75 0.0 0.0 0.00 0.00 0.00 59 1009.7
20260507181754 76 0.0 0.0 0.00 0.00 0.00 58 1009.6
20260507181455 75 0.0 0.0 0.00 0.00 0.00 59 1009.8
20260507181154 75 0.0 0.0 0.00 0.00 0.00 58 1009.8
20260507180854 75 0.0 0.0 0.00 0.00 0.00 59 1009.9
20260507180554 75 0.0 0.0 0.00 0.00 0.00 59 1009.9
20260507180255 75 0.0 0.0 0.00 0.00 0.00 59 1009.9
20260507175955 76 0.0 0.0 0.00 0.00 0.00 57 1009.7
20260507175655 76 0.0 0.0 0.00 0.00 0.00 57 1009.7
20260507175354 75 0.0 0.0 0.00 0.00 0.00 57 1009.8
20260507175054 76 0.0 0.0 0.00 0.00 0.00 57 1009.9
20260507174755 76 0.0 0.0 0.00 0.00 0.00 56 1010.0
20260507174455 75 0.0 0.0 0.00 0.00 0.00 57 1010.0
20260507174155 75 0.0 0.0 0.00 0.00 0.00 58 1010.2
20260507173855 75 0.0 0.0 0.00 0.00 0.00 57 1010.2
20260507173555 76 0.0 0.0 0.00 0.00 0.00 56 1010.0
20260507173255 76 0.0 0.0 0.00 0.00 0.00 56 1009.9
20260507172955 76 0.0 0.0 0.00 0.00 0.00 56 1010.0
20260507172655 76 0.0 0.0 0.00 0.00 0.00 56 1009.9
20260507172354 75 0.0 0.0 0.00 0.00 0.00 56 1010.1
20260507172055 76 0.0 0.0 0.00 0.00 0.00 56 1010.1
20260507171754 76 0.0 0.0 0.00 0.00 0.00 55 1010.2
20260507171455 76 0.0 0.0 0.00 0.00 0.00 55 1010.2
20260507171155 76 0.0 0.0 0.00 0.00 0.00 55 1010.2
20260507170855 76 0.0 0.0 0.00 0.00 0.00 54 1010.2
20260507170555 76 0.0 0.0 0.00 0.00 0.00 54 1010.2
20260507170255 76 0.0 0.0 0.00 0.00 0.00 53 1010.4
20260507165955 76 0.0 0.0 0.00 0.00 0.00 54 1010.4
20260507165655 76 0.0 0.0 0.00 0.00 0.00 54 1010.5
20260507165355 76 0.0 0.0 0.00 0.00 0.00 54 1010.4
20260507165055 76 0.0 0.0 0.00 0.00 0.00 53 1010.3
20260507164755 76 0.0 0.0 0.00 0.00 0.00 54 1010.6
20260507164455 76 0.0 0.0 0.00 0.00 0.00 55 1010.5
20260507164155 76 0.0 0.0 0.00 0.00 0.00 55 1010.6
20260507163855 76 0.0 0.0 0.00 0.00 0.00 53 1010.7
20260507163555 76 0.0 0.0 0.00 0.00 0.00 56 1010.8
20260507163255 76 0.0 0.0 0.00 0.00 0.00 56 1010.8
20260507162955 76 0.0 0.0 0.00 0.00 0.00 57 1010.9
20260507162655 76 0.0 0.0 0.00 0.00 0.00 57 1011.0
20260507162355 75 0.0 0.0 0.00 0.00 0.00 57 1011.1
20260507162055 75 0.0 0.0 0.00 0.00 0.00 59 1011.1
20260507161755 75 0.0 0.0 0.00 0.00 0.00 57 1011.1
20260507161455 75 0.0 0.0 0.00 0.00 0.00 57 1011.0
20260507161155 75 0.0 0.0 0.00 0.00 0.00 59 1011.2
20260507160855 76 0.0 0.0 0.00 0.00 0.00 59 1011.0
20260507160554 76 0.0 0.0 0.00 0.00 0.00 60 1011.2
20260507160255 75 0.0 0.0 0.00 0.00 0.00 60 1011.3
20260507155955 76 0.0 0.0 0.00 0.00 0.00 58 1011.1
20260507155656 76 0.0 0.0 0.00 0.00 0.00 60 1011.3
20260507155355 76 0.0 0.0 0.00 0.00 0.00 60 1011.4
20260507155055 75 0.0 0.0 0.00 0.00 0.00 60 1011.3
20260507154754 75 0.0 0.0 0.00 0.00 0.00 63 1011.5
20260507154455 76 0.0 0.0 0.00 0.00 0.00 61 1011.4
20260507154154 76 0.0 0.0 0.00 0.00 0.00 61 1011.6
20260507153855 75 0.0 0.0 0.00 0.00 0.00 60 1011.8
20260507153555 75 0.0 0.0 0.00 0.00 0.00 60 1011.8
20260507153255 76 0.0 0.0 0.00 0.00 0.00 60 1012.0
20260507152954 75 0.0 0.0 0.00 0.00 0.00 61 1012.2
20260507152655 75 0.0 0.0 0.00 0.00 0.00 61 1012.2
20260507152355 75 0.0 0.0 0.00 0.00 0.00 61 1012.4
20260507152055 75 0.0 0.0 0.00 0.00 0.00 62 1012.6
20260507151754 75 0.0 0.0 0.00 0.00 0.00 64 1012.7
20260507151455 74 0.0 0.0 0.00 0.00 0.00 64 1012.8
20260507151155 75 0.0 0.0 0.00 0.00 0.00 64 1012.9
20260507150855 75 0.0 0.0 0.00 0.00 0.00 64 1012.8
20260507150554 73 0.0 0.0 0.00 0.00 0.00 66 1013.3
20260507150254 73 0.0 0.0 0.00 0.00 0.00 67 1013.4
20260507145955 74 0.0 0.0 0.00 0.00 0.00 66 1013.4
20260507145655 73 0.0 0.0 0.00 0.00 0.00 65 1013.4
20260507145355 73 0.0 0.0 0.00 0.00 0.00 66 1013.8
20260507145055 74 0.0 0.0 0.00 0.00 0.00 65 1013.7
20260507144754 74 0.0 0.0 0.00 0.00 0.00 65 1013.7
20260507144454 73 0.0 0.0 0.00 0.00 0.00 65 1013.9
20260507144154 74 0.0 0.0 0.00 0.00 0.00 65 1014.0
20260507143854 74 0.0 0.0 0.00 0.00 0.00 65 1013.8
20260507143554 73 0.0 0.0 0.00 0.00 0.00 66 1014.1
20260507143255 73 0.0 0.0 0.00 0.00 0.00 65 1014.4
20260507142955 73 0.0 0.0 0.00 0.00 0.00 66 1014.4
20260507142655 73 0.0 0.0 0.00 0.00 0.00 67 1014.6
20260507142355 73 0.0 0.0 0.00 0.00 0.00 67 1014.4
20260507142055 73 0.0 0.0 0.00 0.00 0.00 68 1014.6
20260507141754 72 0.0 0.0 0.00 0.00 0.00 68 1014.7
20260507141455 73 0.0 0.0 0.00 0.00 0.00 68 1014.7
20260507141154 72 0.0 0.0 0.00 0.00 0.00 68 1014.8
20260507140854 72 0.0 0.0 0.00 0.00 0.00 69 1014.9
20260507140554 72 0.0 0.0 0.00 0.00 0.00 69 1014.9
20260507140254 72 0.0 0.0 0.00 0.00 0.00 69 1015.0
20260507135954 72 0.0 0.0 0.00 0.00 0.00 68 1014.8
20260507135654 72 0.0 0.0 0.00 0.00 0.00 69 1015.0
20260507135355 73 0.0 0.0 0.00 0.00 0.00 70 1014.9
20260507135054 72 0.0 0.0 0.00 0.00 0.00 68 1015.1
20260507134754 72 0.0 0.0 0.00 0.00 0.00 68 1015.1
20260507134455 72 0.0 0.0 0.00 0.00 0.00 69 1015.2
20260507134155 72 0.0 0.0 0.00 0.00 0.00 68 1015.2
20260507133854 72 0.0 0.0 0.00 0.00 0.00 70 1015.3
20260507133555 72 0.0 0.0 0.00 0.00 0.00 68 1015.4
20260507133254 72 0.0 0.0 0.00 0.00 0.00 68 1015.1
20260507132954 72 0.0 0.0 0.00 0.00 0.00 70 1015.3
20260507132655 72 0.0 0.0 0.00 0.00 0.00 70 1015.4
20260507132355 71 0.0 0.0 0.00 0.00 0.00 70 1015.5
20260507132055 71 0.0 0.0 0.00 0.00 0.00 71 1015.6
20260507131755 71 0.0 0.0 0.00 0.00 0.00 71 1015.5
20260507131454 71 0.0 0.0 0.00 0.00 0.00 71 1015.6
20260507131154 71 0.0 0.0 0.00 0.00 0.00 71 1015.6
20260507130854 71 0.0 0.0 0.00 0.00 0.00 71 1015.7
20260507130555 71 0.0 0.0 0.00 0.00 0.00 71 1015.7
20260507130255 72 0.0 0.0 0.00 0.00 0.00 71 1015.7
20260507125955 71 0.0 0.0 0.00 0.00 0.00 73 1015.9
20260507125655 71 0.0 0.0 0.00 0.00 0.00 72 1015.9
20260507125354 71 0.0 0.0 0.00 0.00 0.00 74 1016.0
20260507125055 70 0.0 0.0 0.00 0.00 0.00 74 1016.2
20260507124755 71 0.0 0.0 0.00 0.00 0.00 75 1016.0
20260507124455 71 0.0 0.0 0.00 0.00 0.00 74 1015.9
20260507124155 71 0.0 0.0 0.00 0.00 0.00 75 1016.0
20260507123854 71 0.0 0.0 0.00 0.00 0.00 74 1016.0
20260507123554 71 0.0 0.0 0.00 0.00 0.00 75 1016.1
20260507123255 70 0.0 0.0 0.00 0.00 0.00 75 1016.2
20260507122955 70 0.0 0.0 0.00 0.00 0.00 76 1016.3
20260507122654 69 0.0 0.0 0.00 0.00 0.00 79 1016.4
20260507122354 69 0.0 0.0 0.00 0.00 0.00 77 1016.5
20260507122054 70 0.0 0.0 0.00 0.00 0.00 76 1016.4
20260507121754 69 0.0 0.0 0.00 0.00 0.00 77 1016.5
20260507121454 69 0.0 0.0 0.00 0.00 0.00 78 1016.5
20260507121154 69 0.0 0.0 0.00 0.00 0.00 80 1016.5
20260507120855 68 0.0 0.0 0.00 0.00 0.00 79 1016.5
20260507120555 67 0.0 0.0 0.00 0.00 0.00 80 1016.8
20260507120254 68 0.0 0.0 0.00 0.00 0.00 78 1016.8
20260507115955 68 0.0 0.0 0.00 0.00 0.00 78 1016.8
20260507115655 68 0.0 0.0 0.00 0.00 0.00 79 1016.7
20260507115355 68 0.0 0.0 0.00 0.00 0.00 80 1016.8
20260507115054 67 0.0 0.0 0.00 0.00 0.00 81 1016.9
20260507114754 67 0.0 0.0 0.00 0.00 0.00 82 1016.8
20260507114454 67 0.0 0.0 0.00 0.00 0.00 81 1017.1
20260507114154 67 0.0 0.0 0.00 0.00 0.00 80 1017.0
20260507113854 66 0.0 0.0 0.00 0.00 0.00 81 1017.1
20260507113554 67 0.0 0.0 0.00 0.00 0.00 79 1017.0
20260507113255 66 0.0 0.0 0.00 0.00 0.00 80 1017.2
20260507112955 66 0.0 0.0 0.00 0.00 0.00 78 1017.1
20260507112655 67 0.0 0.0 0.00 0.00 0.00 78 1017.0
20260507112355 66 0.0 0.0 0.00 0.00 0.00 79 1017.1
20260507112054 65 0.0 0.0 0.00 0.00 0.00 82 1017.4
20260507111754 65 0.0 0.0 0.00 0.00 0.00 80 1017.3
20260507111454 65 0.0 0.0 0.00 0.00 0.00 80 1017.3
20260507111155 65 0.0 0.0 0.00 0.00 0.00 82 1017.4
20260507110854 65 0.0 0.0 0.00 0.00 0.00 80 1017.2
20260507110554 65 0.0 0.0 0.00 0.00 0.00 78 1017.2
20260507110254 64 0.0 0.0 0.00 0.00 0.00 80 1017.5
20260507105954 64 0.0 0.0 0.00 0.00 0.00 81 1017.6
20260507105654 64 0.0 0.0 0.00 0.00 0.00 79 1017.5
20260507105355 64 0.0 0.0 0.00 0.00 0.00 79 1017.5
20260507105054 64 0.0 0.0 0.00 0.00 0.00 79 1017.6
20260507104754 63 0.0 0.0 0.00 0.00 0.00 80 1017.8
20260507104454 63 0.0 0.0 0.00 0.00 0.00 79 1017.8
20260507104154 63 0.0 0.0 0.00 0.00 0.00 80 1017.9
20260507103854 63 0.0 0.0 0.00 0.00 0.00 79 1017.8
20260507103554 63 0.0 0.0 0.00 0.00 0.00 79 1017.9
20260507103254 63 0.0 0.0 0.00 0.00 0.00 79 1017.9
20260507102954 62 0.0 0.0 0.00 0.00 0.00 81 1018.1
20260507102654 62 0.0 0.0 0.00 0.00 0.00 80 1018.1
20260507102354 62 0.0 0.0 0.00 0.00 0.00 82 1018.2
20260507102054 63 0.0 0.0 0.00 0.00 0.00 78 1017.9
20260507101754 62 0.0 0.0 0.00 0.00 0.00 81 1018.2
20260507101454 62 0.0 0.0 0.00 0.00 0.00 80 1018.2
20260507101154 62 0.0 0.0 0.00 0.00 0.00 80 1018.2
20260507100854 61 0.0 0.0 0.00 0.00 0.00 80 1018.2
20260507100554 62 0.0 0.0 0.00 0.00 0.00 80 1018.2
20260507100254 62 0.0 0.0 0.00 0.00 0.00 79 1018.2
20260507095954 61 0.0 0.0 0.00 0.00 0.00 81 1018.2
20260507095654 61 0.0 0.0 0.00 0.00 0.00 81 1018.4
20260507095354 62 0.0 0.0 0.00 0.00 0.00 80 1018.2
20260507095055 62 0.0 0.0 0.00 0.00 0.00 80 1018.1
20260507094755 62 0.0 0.0 0.00 0.00 0.00 80 1018.1
20260507094454 61 0.0 0.0 0.00 0.00 0.00 81 1018.3
20260507094154 61 0.0 0.0 0.00 0.00 0.00 81 1018.2
20260507093855 61 0.0 0.0 0.00 0.00 0.00 81 1018.1
20260507093555 62 0.0 0.0 0.00 0.00 0.00 80 1018.2
20260507093255 62 0.0 0.0 0.00 0.00 0.00 79 1018.2
20260507092955 61 0.0 0.0 0.00 0.00 0.00 81 1018.4
20260507092655 61 0.0 0.0 0.00 0.00 0.00 81 1018.4
20260507092355 61 0.0 0.0 0.00 0.00 0.00 81 1018.3
20260507092054 61 0.0 0.0 0.00 0.00 0.00 81 1018.3
20260507091754 61 0.0 0.0 0.00 0.00 0.00 81 1018.3
20260507091454 61 0.0 0.0 0.00 0.00 0.00 81 1018.4
20260507091154 62 0.0 0.0 0.00 0.00 0.00 80 1018.2
20260507090854 62 0.0 0.0 0.00 0.00 0.00 80 1018.2
20260507090554 61 0.0 0.0 0.00 0.00 0.00 82 1018.4
20260507090255 61 0.0 0.0 0.00 0.00 0.00 82 1018.4
20260507085955 61 0.0 0.0 0.00 0.00 0.00 81 1018.3
20260507085654 61 0.0 0.0 0.00 0.00 0.00 81 1018.3
20260507085354 61 0.0 0.0 0.00 0.00 0.00 81 1018.3
20260507085054 61 0.0 0.0 0.00 0.00 0.00 82 1018.3
20260507084754 61 0.0 0.0 0.00 0.00 0.00 83 1018.4
20260507084455 60 0.0 0.0 0.00 0.00 0.00 84 1018.6
20260507084155 61 0.0 0.0 0.00 0.00 0.00 82 1018.3
20260507083854 61 0.0 0.0 0.00 0.00 0.00 82 1018.2
20260507083554 61 0.0 0.0 0.00 0.00 0.00 81 1018.3
20260507083255 61 0.0 0.0 0.00 0.00 0.00 83 1018.3
20260507082955 60 0.0 0.0 0.00 0.00 0.00 85 1018.6
20260507082654 60 0.0 0.0 0.00 0.00 0.00 85 1018.6
20260507082354 60 0.0 0.0 0.00 0.00 0.00 84 1018.5
20260507082054 61 0.0 0.0 0.00 0.00 0.00 84 1018.5
20260507081754 61 0.0 0.0 0.00 0.00 0.00 84 1018.5
20260507081454 60 0.0 0.0 0.00 0.00 0.00 84 1018.5
20260507081154 61 0.0 0.0 0.00 0.00 0.00 81 1018.1
20260507080854 61 0.0 0.0 0.00 0.00 0.00 83 1018.3
20260507080554 61 0.0 0.0 0.00 0.00 0.00 84 1018.4
20260507080254 61 0.0 0.0 0.00 0.00 0.00 81 1018.3
20260507075954 62 0.0 0.0 0.00 0.00 0.00 81 1018.2
20260507075654 61 0.0 0.0 0.00 0.00 0.00 83 1018.3
20260507075354 61 0.0 0.0 0.00 0.00 0.00 83 1018.3
20260507075055 62 0.0 0.0 0.00 0.00 0.00 81 1018.1
20260507074755 62 0.0 0.0 0.00 0.00 0.00 80 1018.3
20260507074455 63 0.0 0.0 0.00 0.00 0.00 78 1018.0
20260507074155 63 0.0 0.0 0.00 0.00 0.00 78 1018.2
20260507073855 62 0.0 0.0 0.00 0.00 0.00 80 1018.4
20260507073555 62 0.0 0.0 0.00 0.00 0.00 79 1018.2
20260507073254 62 0.0 0.0 0.00 0.00 0.00 79 1018.3
20260507072954 62 0.0 0.0 0.00 0.00 0.00 80 1018.4
20260507072654 62 0.0 0.0 0.00 0.00 0.00 80 1018.5
20260507072354 62 0.0 0.0 0.00 0.00 0.00 81 1018.5
20260507072054 62 0.0 0.0 0.00 0.00 0.00 80 1018.4
20260507071754 62 0.0 0.0 0.00 0.00 0.00 79 1018.2
20260507071454 62 0.0 0.0 0.00 0.00 0.00 81 1018.4
20260507071154 62 0.0 0.0 0.00 0.00 0.00 81 1018.5
20260507070855 61 0.0 0.0 0.00 0.00 0.00 82 1018.7
20260507070555 62 0.0 0.0 0.00 0.00 0.00 81 1018.5
20260507070254 61 0.0 0.0 0.00 0.00 0.00 82 1018.8
20260507065954 63 0.0 0.0 0.00 0.00 0.00 78 1018.4
20260507065654 62 0.0 0.0 0.00 0.00 0.00 80 1018.6
20260507065355 62 0.0 0.0 0.00 0.00 0.00 80 1018.8
20260507065054 62 0.0 0.0 0.00 0.00 0.00 81 1018.8
20260507064754 62 0.0 0.0 0.00 0.00 0.00 82 1018.9
20260507064454 62 0.0 0.0 0.00 0.00 0.00 80 1018.9
20260507064154 62 0.0 0.0 0.00 0.00 0.00 79 1018.8
20260507063855 62 0.0 0.0 0.00 0.00 0.00 80 1018.8
20260507063555 62 0.0 0.0 0.00 0.00 0.00 80 1018.9
20260507063255 62 0.0 0.0 0.00 0.00 0.00 80 1018.8
20260507062955 62 0.0 0.0 0.00 0.00 0.00 82 1019.0
20260507062654 62 0.0 0.0 0.00 0.00 0.00 82 1019.1
20260507062354 62 0.0 0.0 0.00 0.00 0.00 81 1019.1
20260507062054 62 0.0 0.0 0.00 0.00 0.00 81 1019.1
20260507061754 62 0.0 0.0 0.00 0.00 0.00 81 1019.3
20260507061455 62 0.0 0.0 0.00 0.00 0.00 81 1019.4
20260507061155 62 0.0 0.0 0.00 0.00 0.00 82 1019.3
20260507060854 62 0.0 0.0 0.00 0.00 0.00 82 1019.3
20260507060554 62 0.0 0.0 0.00 0.00 0.00 83 1019.4
20260507060254 62 0.0 0.0 0.00 0.00 0.00 83 1019.3
20260507055954 62 0.0 0.0 0.00 0.00 0.00 85 1019.3
20260507055654 62 0.0 0.0 0.00 0.00 0.00 85 1019.3
20260507055354 62 0.0 0.0 0.00 0.00 0.00 84 1019.4
20260507055055 62 0.0 0.0 0.00 0.00 0.00 85 1019.5
20260507054755 63 0.0 0.0 0.00 0.00 0.00 83 1019.3
20260507054454 63 0.0 0.0 0.00 0.00 0.00 83 1019.5
20260507054154 62 0.0 0.0 0.00 0.00 0.00 85 1019.7
20260507053855 62 0.0 0.0 0.00 0.00 0.00 83 1019.6
20260507053555 63 0.0 0.0 0.00 0.00 0.00 82 1019.6
20260507053254 63 0.0 0.0 0.00 0.00 0.00 80 1019.6
20260507052954 64 0.0 0.0 0.00 0.00 0.00 79 1019.4
20260507052655 64 0.0 0.0 0.00 0.00 0.00 78 1019.4
20260507052355 64 0.0 0.0 0.00 0.00 0.00 78 1019.4
20260507052055 64 0.0 0.0 0.00 0.00 0.00 78 1019.5
20260507051755 64 0.0 0.0 0.00 0.00 0.00 79 1019.6
20260507051455 64 0.0 0.0 0.00 0.00 0.00 78 1019.6
20260507051155 64 0.0 0.0 0.00 0.00 0.00 78 1019.6
20260507050854 64 0.0 0.0 0.00 0.00 0.00 78 1019.7
20260507050554 63 0.0 0.0 0.00 0.00 0.00 79 1019.9
20260507050255 63 0.0 0.0 0.00 0.00 0.00 79 1019.9
20260507045955 63 0.0 0.0 0.00 0.00 0.00 78 1019.9
20260507045654 64 0.0 0.0 0.00 0.00 0.00 78 1020.0
20260507045354 63 0.0 0.0 0.00 0.00 0.00 80 1020.2
20260507045054 63 0.0 0.0 0.00 0.00 0.00 79 1020.1
20260507044754 63 0.0 0.0 0.00 0.00 0.00 80 1020.2
20260507044454 64 0.0 0.0 0.00 0.00 0.00 77 1020.0
20260507044154 63 0.0 0.0 0.00 0.00 0.00 79 1020.2
20260507043854 62 0.0 0.0 0.00 0.00 0.00 81 1020.5
20260507043554 63 0.0 0.0 0.00 0.00 0.00 80 1020.4
20260507043254 62 0.0 0.0 0.00 0.00 0.00 82 1020.5
20260507042954 62 0.0 0.0 0.00 0.00 0.00 81 1020.6
20260507042654 63 0.0 0.0 0.00 0.00 0.00 79 1020.5
20260507042354 63 0.0 0.0 0.00 0.00 0.00 79 1020.5
20260507042054 63 0.0 0.0 0.00 0.00 0.00 80 1020.6
20260507041754 62 0.0 0.0 0.00 0.00 0.00 81 1020.8
20260507041455 64 0.0 0.0 0.00 0.00 0.00 78 1020.5
20260507041154 63 0.0 0.0 0.00 0.00 0.00 78 1020.5
20260507040854 64 0.0 0.0 0.00 0.00 0.00 77 1020.3
20260507040555 64 0.0 0.0 0.00 0.00 0.00 78 1020.5
20260507040255 64 0.0 0.0 0.00 0.00 0.00 77 1020.5